M I D A S
Marine Information and Data Acquisition System
Tripno 2281 of the Zeeleeuw from 2012-03-27 06:35:23 to 2012-03-27 13:54:23
Back to CruiseResearch ActivitiesStationsMapUnderway DataData graphs

EquipmentUnitsComments
TimeDGPSUTC
LatitudeDGPSDM.mWGS84
LongitudeDGPSDM.mWGS84
SpeedMeteo Stationm/sRelative wind speed
DirectionMeteo StationdegRelative wind direction
TemperatureMeteo Stationdeg CelciusAir temperature
PressureMeteo StationPaAtmospheric pressure
HumidityMeteo Station%Relative humidity
Missing or incorrect values are displayed as -999
Metereological data collected by the RV Zeeleeuw from 2012-03-27 06:24:12 to 2012-03-27 14:08:26
Time Latitude Longitude Speed Direction Temperature Pressure Humidity
2012-03-27 06:25 51°13.635 2°56.018 1.4 21 7.5 -999 33
2012-03-27 06:26 51°13.635 2°56.017 -999 249 7.5 103580 50
2012-03-27 06:27 51°13.636 2°56.017 -999 241 7.5 103580 49
2012-03-27 06:28 51°13.636 2°56.017 0.1 254 7.5 103590 49
2012-03-27 06:29 51°13.636 2°56.018 2 19 7.6 103590 50
2012-03-27 06:30 51°13.637 2°56.018 0.1 23 7.6 103590 50
2012-03-27 06:31 51°13.634 2°56.019 1 19 7.6 103590 49
2012-03-27 06:32 51°13.635 2°56.019 1.8 248 7.7 103590 50
2012-03-27 06:33 51°13.636 2°56.018 1.1 252 7.7 103590 49
2012-03-27 06:34 51°13.635 2°56.019 -999 249 7.7 103590 49
2012-03-27 06:35 51°13.635 2°56.019 -999 252 7.7 103590 48
2012-03-27 06:36 51°13.635 2°56.019 -999 251 7.7 103590 49
2012-03-27 06:37 51°13.635 2°56.019 -999 247 7.7 103590 49
2012-03-27 06:38 51°13.634 2°56.019 -999 242 7.8 103590 49
2012-03-27 06:39 51°13.641 2°55.985 0.1 252 7.8 103590 49
2012-03-27 06:40 51°13.662 2°55.893 1.3 38 7.8 103590 49
2012-03-27 06:41 51°13.707 2°55.786 3 21 7.8 103590 49
2012-03-27 06:42 51°13.771 2°55.69 3 38 7.8 103590 47
2012-03-27 06:43 51°13.849 2°55.625 2.9 20 7.9 103600 45
2012-03-27 06:44 51°13.933 2°55.627 2.7 34 8.1 103590 47
2012-03-27 06:45 51°13.977 2°55.66 1.3 21 8.4 103590 47
2012-03-27 06:46 51°13.984 2°55.636 1.1 10 8.4 103590 46
2012-03-27 06:47 51°14.032 2°55.54 3.2 346 8.4 103590 47
2012-03-27 06:48 51°14.139 2°55.42 5 347 8.3 103590 49
2012-03-27 06:49 51°14.274 2°55.284 5.2 347 8.1 103590 50
2012-03-27 06:50 51°14.421 2°55.143 6.7 346 7.9 103590 52
2012-03-27 06:51 51°14.568 2°54.983 5.7 348 7.9 103590 52
2012-03-27 06:52 51°14.708 2°54.774 6.2 349 7.8 103590 52
2012-03-27 06:53 51°14.877 2°54.586 6.4 346 7.8 103590 53
2012-03-27 06:54 51°15.054 2°54.419 6.4 348 7.8 103590 53
2012-03-27 06:55 51°15.242 2°54.302 -999 346 7.8 103580 52
2012-03-27 06:56 51°15.438 2°54.247 -999 343 7.8 103590 52
2012-03-27 06:57 51°15.636 2°54.214 -999 344 7.9 103590 52
2012-03-27 06:58 51°15.832 2°54.154 7.9 342 7.9 103590 52
2012-03-27 06:59 51°16.025 2°54.17 -999 337 7.9 103590 51
2012-03-27 07:00 51°16.159 2°54.222 -999 340 7.9 103600 52
2012-03-27 07:01 51°16.248 2°54.243 -999 340 8 103600 52
2012-03-27 07:02 51°16.303 2°54.278 1.4 327 8 103600 52
2012-03-27 07:03 51°16.313 2°54.301 3.2 30 8 103600 51
2012-03-27 07:04 51°16.307 2°54.289 3.6 240 8.1 103600 51
2012-03-27 07:05 51°16.3 2°54.274 3.6 250 8.2 103610 51
2012-03-27 07:06 51°16.291 2°54.255 4.2 259 8.2 103600 52
2012-03-27 07:07 51°16.282 2°54.234 3.1 263 8.2 103610 51
2012-03-27 07:08 51°16.272 2°54.212 2 267 8.2 103610 51
2012-03-27 07:09 51°16.263 2°54.188 2.3 269 8.3 103610 50
2012-03-27 07:10 51°16.254 2°54.164 1.9 267 8.2 103610 52
2012-03-27 07:11 51°16.245 2°54.141 2.1 267 8.2 103610 51
2012-03-27 07:12 51°16.235 2°54.116 2.1 268 8.2 103610 52
2012-03-27 07:13 51°16.226 2°54.092 2.2 269 8.2 103610 51
2012-03-27 07:14 51°16.217 2°54.067 2.3 264 8.2 103610 52
2012-03-27 07:15 51°16.208 2°54.043 2.2 262 8.2 103620 51
2012-03-27 07:16 51°16.198 2°54.018 2.5 263 8.2 103620 52
2012-03-27 07:17 51°16.183 2°53.999 3 248 8.2 103610 52
2012-03-27 07:18 51°16.168 2°54.039 4.1 324 8.3 103610 52
2012-03-27 07:19 51°16.236 2°54.139 2.5 333 8.2 103620 51
2012-03-27 07:20 51°16.337 2°54.291 -999 328 8.2 103610 51
2012-03-27 07:21 51°16.357 2°54.421 -999 35 8.2 103620 52
2012-03-27 07:22 51°16.341 2°54.431 -999 257 8.3 103620 52
2012-03-27 07:23 51°16.328 2°54.41 -999 270 8.3 103620 51
2012-03-27 07:24 51°16.314 2°54.381 -999 35 8.3 103620 52
2012-03-27 07:25 51°16.301 2°54.351 -999 35 8.3 103620 52
2012-03-27 07:26 51°16.287 2°54.32 -999 269 8.2 103620 51
2012-03-27 07:27 51°16.273 2°54.289 -999 268 8.3 103620 52
2012-03-27 07:28 51°16.26 2°54.259 -999 267 8.3 103620 52
2012-03-27 07:29 51°16.248 2°54.228 -999 268 8.3 103620 51
2012-03-27 07:30 51°16.236 2°54.197 -999 268 8.4 103620 52
2012-03-27 07:31 51°16.224 2°54.165 -999 267 8.4 103620 52
2012-03-27 07:32 51°16.213 2°54.135 -999 41 8.4 103620 52
2012-03-27 07:33 51°16.202 2°54.102 -999 270 8.4 103620 52
2012-03-27 07:34 51°16.191 2°54.07 -999 269 8.4 103620 52
2012-03-27 07:35 51°16.18 2°54.036 -999 267 8.4 103630 52
2012-03-27 07:36 51°16.169 2°54.002 -999 267 8.4 103630 52
2012-03-27 07:37 51°16.158 2°53.969 -999 269 8.4 103630 52
2012-03-27 07:38 51°16.147 2°53.935 -999 270 8.4 103620 52
2012-03-27 07:39 51°16.136 2°53.9 -999 270 8.3 103630 52
2012-03-27 07:40 51°16.11 2°53.879 -999 244 8.4 103630 52
2012-03-27 07:41 51°16.09 2°53.909 0.1 323 8.4 103620 52
2012-03-27 07:42 51°16.118 2°53.958 -999 333 8.5 103630 52
2012-03-27 07:43 51°16.207 2°54.091 -999 332 8.4 103620 52
2012-03-27 07:44 51°16.295 2°54.272 -999 327 8.3 103620 52
2012-03-27 07:45 51°16.291 2°54.39 -999 35 8.3 103630 53
2012-03-27 07:46 51°16.28 2°54.373 -999 261 8.3 103630 53
2012-03-27 07:47 51°16.273 2°54.34 -999 268 8.3 103640 53
2012-03-27 07:48 51°16.264 2°54.31 -999 268 8.3 103630 53
2012-03-27 07:49 51°16.255 2°54.279 -999 38 8.3 103630 53
2012-03-27 07:50 51°16.246 2°54.247 -999 35 8.3 103640 52
2012-03-27 07:51 51°16.237 2°54.214 -999 35 8.2 103640 53
2012-03-27 07:52 51°16.227 2°54.18 -999 35 8.2 103640 53
2012-03-27 07:53 51°16.198 2°54.118 -999 35 8.2 103640 52
2012-03-27 07:54 51°16.19 2°53.972 -999 3 8.2 103640 53
2012-03-27 07:55 51°16.264 2°53.821 -999 350 8.2 103630 53
2012-03-27 07:56 51°16.372 2°53.652 -999 348 8.1 103630 53
2012-03-27 07:57 51°16.459 2°53.591 -999 347 8 103630 54
2012-03-27 07:58 51°16.56 2°53.534 -999 348 7.9 103630 54
2012-03-27 07:59 51°16.636 2°53.501 -999 345 7.9 103630 54
2012-03-27 08:00 51°16.677 2°53.517 -999 334 7.9 103630 54
2012-03-27 08:01 51°16.712 2°53.592 -999 331 8 103630 53
2012-03-27 08:02 51°16.738 2°53.682 -999 329 8.1 103630 54
2012-03-27 08:03 51°16.754 2°53.762 -999 331 8.2 103640 53
2012-03-27 08:04 51°16.772 2°53.834 -999 331 8.4 103640 53
2012-03-27 08:05 51°16.805 2°53.891 -999 333 8.4 103630 53
2012-03-27 08:06 51°16.834 2°53.956 -999 330 8.4 103640 52
2012-03-27 08:07 51°16.87 2°54.02 -999 332 8.5 103630 52
2012-03-27 08:08 51°16.906 2°54.085 -999 329 8.5 103640 52
2012-03-27 08:09 51°16.933 2°54.16 -999 328 8.5 103640 51
2012-03-27 08:10 51°16.948 2°54.242 -999 325 8.5 103640 52
2012-03-27 08:11 51°16.953 2°54.327 -999 323 8.6 103630 52
2012-03-27 08:12 51°16.968 2°54.408 -999 329 8.7 103640 52
2012-03-27 08:13 51°16.998 2°54.476 -999 331 8.7 103640 52
2012-03-27 08:14 51°17.017 2°54.551 -999 324 8.6 103650 52
2012-03-27 08:15 51°17.017 2°54.633 -999 318 8.7 103650 52
2012-03-27 08:16 51°16.998 2°54.713 -999 35 8.7 103640 53
2012-03-27 08:17 51°16.942 2°54.761 -999 245 8.6 103650 52
2012-03-27 08:18 51°16.878 2°54.758 -999 259 8.7 103650 52
2012-03-27 08:19 51°16.828 2°54.729 -999 266 8.7 103660 53
2012-03-27 08:20 51°16.777 2°54.686 -999 269 8.7 103660 53
2012-03-27 08:21 51°16.689 2°54.59 -999 261 8.7 103660 53
2012-03-27 08:22 51°16.61 2°54.345 -999 352 8.8 103670 53
2012-03-27 08:23 51°16.641 2°54.02 -999 349 8.5 103660 52
2012-03-27 08:24 51°16.715 2°53.69 -999 347 8.3 103660 53
2012-03-27 08:25 51°16.781 2°53.352 -999 347 8.1 103660 53
2012-03-27 08:26 51°16.902 2°53.078 -999 348 8 103660 54
2012-03-27 08:27 51°17.032 2°52.823 -999 347 8 103670 54
2012-03-27 08:28 51°17.198 2°52.64 -999 343 7.9 103660 54
2012-03-27 08:29 51°17.382 2°52.512 6.7 344 8 103650 54
2012-03-27 08:30 51°17.562 2°52.369 7.2 344 8 103650 54
2012-03-27 08:31 51°17.738 2°52.211 6.9 342 8 103650 54
2012-03-27 08:32 51°17.918 2°52.065 8.9 344 8 103650 55
2012-03-27 08:33 51°18.107 2°51.963 7.8 340 8 103650 53
2012-03-27 08:34 51°18.293 2°51.84 9.3 341 8.1 103650 54
2012-03-27 08:35 51°18.478 2°51.703 9.3 341 8.1 103660 54
2012-03-27 08:36 51°18.672 2°51.601 10.6 341 8.1 103650 54
2012-03-27 08:37 51°18.857 2°51.455 8.6 344 8.1 103650 54
2012-03-27 08:38 51°19.042 2°51.311 10.8 341 8 103650 54
2012-03-27 08:39 51°19.235 2°51.204 7.5 340 8 103650 54
2012-03-27 08:40 51°19.427 2°51.09 7.7 339 8 103650 54
2012-03-27 08:41 51°19.62 2°50.977 7.6 338 8 103650 52
2012-03-27 08:42 51°19.816 2°50.895 7.8 339 8 103660 54
2012-03-27 08:43 51°20.011 2°50.79 9.7 342 8 103650 54
2012-03-27 08:44 51°20.203 2°50.658 10.1 340 7.9 103650 54
2012-03-27 08:45 51°20.399 2°50.546 9.5 340 7.9 103650 55
2012-03-27 08:46 51°20.6 2°50.466 9.4 339 7.9 103660 54
2012-03-27 08:47 51°20.799 2°50.37 7.3 339 7.9 103650 54
2012-03-27 08:48 51°20.994 2°50.243 7.6 339 7.9 103650 53
2012-03-27 08:49 51°21.197 2°50.17 8 337 7.9 103650 53
2012-03-27 08:50 51°21.399 2°50.095 9.1 337 7.9 103660 54
2012-03-27 08:51 51°21.595 2°49.993 8.2 338 7.9 103660 54
2012-03-27 08:52 51°21.791 2°49.9 10 336 7.9 103670 54
2012-03-27 08:53 51°21.991 2°49.837 8 336 7.9 103660 54
2012-03-27 08:54 51°22.19 2°49.765 10.1 336 7.8 103670 54
2012-03-27 08:55 51°22.387 2°49.665 9.4 335 7.8 103670 55
2012-03-27 08:56 51°22.587 2°49.59 9.2 334 7.8 103670 54
2012-03-27 08:57 51°22.785 2°49.502 9.1 336 7.8 103670 54
2012-03-27 08:58 51°22.981 2°49.415 7.1 334 7.8 103660 54
2012-03-27 08:59 51°23.181 2°49.386 7.5 333 7.8 103670 53
2012-03-27 09:00 51°23.381 2°49.355 7.1 335 7.8 103670 55
2012-03-27 09:01 51°23.579 2°49.279 7.3 334 7.8 103670 54
2012-03-27 09:02 51°23.781 2°49.24 7 334 7.8 103670 54
2012-03-27 09:03 51°23.977 2°49.19 6.9 333 7.8 103670 55
2012-03-27 09:04 51°24.172 2°49.124 8.9 334 7.8 103670 55
2012-03-27 09:05 51°24.366 2°49.043 7.3 336 7.8 103670 55
2012-03-27 09:06 51°24.561 2°48.977 7.4 335 7.8 103680 55
2012-03-27 09:07 51°24.757 2°48.909 8.8 335 7.8 103670 54
2012-03-27 09:08 51°24.956 2°48.837 8.7 335 7.8 103680 54
2012-03-27 09:09 51°25.152 2°48.734 8.8 335 7.8 103680 54
2012-03-27 09:10 51°25.349 2°48.637 7.5 335 7.8 103680 54
2012-03-27 09:11 51°25.55 2°48.572 7 334 7.8 103680 55
2012-03-27 09:12 51°25.746 2°48.473 8.3 334 7.8 103680 55
2012-03-27 09:13 51°25.905 2°48.427 5 333 7.8 103690 54
2012-03-27 09:14 51°25.986 2°48.461 6 324 7.7 103690 54
2012-03-27 09:15 51°26.045 2°48.538 5.4 325 7.8 103690 54
2012-03-27 09:16 51°26.109 2°48.613 6 324 7.8 103690 54
2012-03-27 09:17 51°26.146 2°48.705 3.9 30 7.9 103690 55
2012-03-27 09:18 51°26.126 2°48.741 3.4 255 7.9 103690 55
2012-03-27 09:19 51°26.112 2°48.721 2.6 261 8 103690 55
2012-03-27 09:20 51°26.097 2°48.697 1.7 266 8.1 103690 55
2012-03-27 09:21 51°26.081 2°48.669 2.4 270 8.1 103690 54
2012-03-27 09:22 51°26.065 2°48.64 2.3 270 8.1 103690 54
2012-03-27 09:23 51°26.047 2°48.609 2.1 270 8 103690 53
2012-03-27 09:24 51°26.03 2°48.577 2.7 25 7.9 103690 54
2012-03-27 09:25 51°26.012 2°48.544 1.7 270 7.9 103690 53
2012-03-27 09:26 51°25.995 2°48.511 1.4 266 7.9 103700 53
2012-03-27 09:27 51°25.978 2°48.479 1.1 265 8 103690 54
2012-03-27 09:28 51°25.962 2°48.445 0.1 266 8 103700 54
2012-03-27 09:29 51°25.947 2°48.411 1.3 265 8.1 103700 54
2012-03-27 09:30 51°25.928 2°48.386 2.9 249 8.1 103700 53
2012-03-27 09:31 51°25.928 2°48.408 3.5 326 8.2 103690 53
2012-03-27 09:32 51°25.996 2°48.435 5.7 328 8.1 103690 54
2012-03-27 09:33 51°26.108 2°48.55 7 324 8.1 103690 54
2012-03-27 09:34 51°26.15 2°48.697 4.5 316 8.1 103700 53
2012-03-27 09:35 51°26.13 2°48.756 3.3 259 8.1 103700 54
2012-03-27 09:36 51°26.118 2°48.726 2.6 19 8.1 103700 54
2012-03-27 09:37 51°26.103 2°48.693 2.5 27 8.1 103700 53
2012-03-27 09:38 51°26.088 2°48.66 2.4 29 8 103700 53
2012-03-27 09:39 51°26.072 2°48.625 1.9 18 8 103700 53
2012-03-27 09:40 51°26.057 2°48.588 1.8 37 8 103700 54
2012-03-27 09:41 51°26.04 2°48.551 2 26 8 103710 54
2012-03-27 09:42 51°26.022 2°48.513 1.8 35 8 103700 53
2012-03-27 09:43 51°25.985 2°48.479 0.9 255 8.1 103710 54
2012-03-27 09:44 51°25.928 2°48.511 3.6 27 8.2 103710 55
2012-03-27 09:45 51°25.937 2°48.585 5.1 323 8.3 103700 53
2012-03-27 09:46 51°26.04 2°48.622 7.3 333 8.3 103690 54
2012-03-27 09:47 51°26.133 2°48.646 5.3 324 8.2 103700 54
2012-03-27 09:48 51°26.167 2°48.69 5 318 8.1 103700 55
2012-03-27 09:49 51°26.193 2°48.737 5.2 322 8.2 103700 55
2012-03-27 09:50 51°26.236 2°48.787 6.4 327 8.2 103700 54
2012-03-27 09:51 51°26.29 2°48.838 5.8 324 8.2 103700 54
2012-03-27 09:52 51°26.333 2°48.883 5.7 325 8.2 103700 54
2012-03-27 09:53 51°26.374 2°48.91 5.1 327 8.2 103700 54
2012-03-27 09:54 51°26.421 2°48.93 5 330 8.2 103700 53
2012-03-27 09:55 51°26.475 2°48.937 5.9 333 8.1 103700 54
2012-03-27 09:56 51°26.535 2°48.936 5.4 335 8.1 103700 54
2012-03-27 09:57 51°26.594 2°48.925 5.6 338 8.1 103700 55
2012-03-27 09:58 51°26.652 2°48.888 4.5 342 8.1 103690 54
2012-03-27 09:59 51°26.709 2°48.821 5.2 344 8 103700 54
2012-03-27 10:00 51°26.758 2°48.726 4.1 352 7.8 103700 54
2012-03-27 10:01 51°26.792 2°48.618 4.1 358 7.7 103700 55
2012-03-27 10:02 51°26.812 2°48.501 2.4 1 7.6 103700 56
2012-03-27 10:03 51°26.836 2°48.39 -999 355 7.5 103700 55
2012-03-27 10:04 51°26.866 2°48.292 -999 353 7.5 103690 55
2012-03-27 10:05 51°26.898 2°48.201 0.6 351 7.5 103700 56
2012-03-27 10:06 51°26.931 2°48.112 4.1 348 7.5 103700 55
2012-03-27 10:07 51°26.967 2°48.029 4.3 343 7.5 103700 56
2012-03-27 10:08 51°27.005 2°47.965 4.3 338 7.5 103700 55
2012-03-27 10:09 51°27.041 2°47.94 3.7 329 7.6 103700 56
2012-03-27 10:10 51°27.057 2°47.926 4.2 327 7.7 103700 55
2012-03-27 10:11 51°27.062 2°47.907 3.9 328 7.8 103700 55
2012-03-27 10:12 51°27.061 2°47.889 4 323 8 103700 55
2012-03-27 10:13 51°27.055 2°47.908 4.2 242 8 103700 55
2012-03-27 10:14 51°26.999 2°47.93 0.5 267 8.1 103690 55
2012-03-27 10:15 51°26.882 2°47.864 -999 317 8.2 103700 55
2012-03-27 10:16 51°26.724 2°47.763 1 323 8.4 103700 55
2012-03-27 10:17 51°26.541 2°47.652 1.5 329 8.6 103700 54
2012-03-27 10:18 51°26.362 2°47.467 0.1 338 8.7 103700 53
2012-03-27 10:19 51°26.182 2°47.273 -999 334 8.7 103700 53
2012-03-27 10:20 51°25.998 2°47.094 -999 336 8.8 103700 52
2012-03-27 10:21 51°25.816 2°46.907 -999 337 8.7 103700 52
2012-03-27 10:22 51°25.629 2°46.74 -999 336 8.8 103700 53
2012-03-27 10:23 51°25.443 2°46.568 -999 332 8.8 103700 53
2012-03-27 10:24 51°25.261 2°46.386 -999 335 8.9 103700 52
2012-03-27 10:25 51°25.083 2°46.195 -999 329 9 103700 52
2012-03-27 10:26 51°24.902 2°46.009 -999 328 9 103700 52
2012-03-27 10:27 51°24.717 2°45.834 0.5 328 9 103700 52
2012-03-27 10:28 51°24.537 2°45.642 -999 332 9.1 103700 52
2012-03-27 10:29 51°24.354 2°45.459 -999 331 9 103700 52
2012-03-27 10:30 51°24.173 2°45.268 0.1 332 9 103700 52
2012-03-27 10:31 51°23.987 2°45.088 -999 329 8.9 103700 52
2012-03-27 10:32 51°23.801 2°44.908 -999 331 9 103700 52
2012-03-27 10:33 51°23.612 2°44.737 -999 331 9.1 103700 52
2012-03-27 10:34 51°23.431 2°44.546 -999 331 9.2 103690 52
2012-03-27 10:35 51°23.245 2°44.37 -999 330 9.4 103690 52
2012-03-27 10:36 51°23.066 2°44.171 0.1 334 9.4 103690 51
2012-03-27 10:37 51°22.878 2°43.995 -999 331 9.4 103690 51
2012-03-27 10:38 51°22.694 2°43.804 -999 336 9.5 103690 51
2012-03-27 10:39 51°22.512 2°43.608 -999 335 9.5 103690 51
2012-03-27 10:40 51°22.323 2°43.431 -999 333 9.5 103690 51
2012-03-27 10:41 51°22.134 2°43.254 -999 327 9.5 103690 51
2012-03-27 10:42 51°21.936 2°43.123 -999 324 9.5 103690 51
2012-03-27 10:43 51°21.736 2°42.994 1.7 325 9.5 103690 51
2012-03-27 10:44 51°21.543 2°42.838 2.6 326 9.6 103690 51
2012-03-27 10:45 51°21.349 2°42.697 1.7 322 9.6 103690 51
2012-03-27 10:46 51°21.152 2°42.572 1.3 326 9.7 103690 51
2012-03-27 10:47 51°20.956 2°42.44 1.7 323 9.7 103680 51
2012-03-27 10:48 51°20.762 2°42.3 1.7 327 9.7 103680 50
2012-03-27 10:49 51°20.561 2°42.198 1.6 317 9.8 103680 50
2012-03-27 10:50 51°20.364 2°42.098 -999 322 9.8 103680 50
2012-03-27 10:51 51°20.168 2°41.987 1.6 319 9.9 103680 51
2012-03-27 10:52 51°19.969 2°41.922 1.9 38 10 103680 50
2012-03-27 10:53 51°19.768 2°41.862 2.4 318 9.9 103680 49
2012-03-27 10:54 51°19.568 2°41.775 2.1 316 9.8 103680 49
2012-03-27 10:55 51°19.367 2°41.71 2.4 30 9.7 103670 50
2012-03-27 10:56 51°19.166 2°41.633 1.9 317 9.7 103670 50
2012-03-27 10:57 51°18.963 2°41.552 2.3 34 9.6 103670 50
2012-03-27 10:58 51°18.759 2°41.498 2.2 39 9.6 103670 49
2012-03-27 10:59 51°18.556 2°41.411 1.8 32 9.5 103670 49
2012-03-27 11:00 51°18.351 2°41.338 2.3 35 9.4 103670 50
2012-03-27 11:01 51°18.146 2°41.28 2.5 40 9.3 103670 50
2012-03-27 11:02 51°17.941 2°41.197 2.1 32 9.2 103670 50
2012-03-27 11:03 51°17.736 2°41.136 2 32 9.2 103670 51
2012-03-27 11:04 51°17.53 2°41.066 1.8 40 9.2 103670 50
2012-03-27 11:05 51°17.326 2°40.983 2.3 34 9.2 103670 50
2012-03-27 11:06 51°17.12 2°40.928 2.6 231 9.2 103660 51
2012-03-27 11:07 51°16.915 2°40.849 2 30 9.1 103670 50
2012-03-27 11:08 51°16.708 2°40.779 1.3 32 9.1 103660 51
2012-03-27 11:09 51°16.5 2°40.727 2.2 33 9 103660 51
2012-03-27 11:10 51°16.294 2°40.648 0.9 32 9 103660 51
2012-03-27 11:11 51°16.09 2°40.554 0.3 30 9 103660 52
2012-03-27 11:12 51°15.887 2°40.464 0.1 36 9 103660 51
2012-03-27 11:13 51°15.68 2°40.389 0.1 234 9.1 103660 51
2012-03-27 11:14 51°15.474 2°40.328 1.8 239 9.1 103660 51
2012-03-27 11:15 51°15.276 2°40.218 0.1 37 9.2 103660 51
2012-03-27 11:16 51°15.079 2°40.108 1 240 9.2 103670 52
2012-03-27 11:17 51°14.886 2°39.984 0.9 39 9.3 103670 51
2012-03-27 11:18 51°14.692 2°39.874 1.5 33 9.5 103670 51
2012-03-27 11:19 51°14.496 2°39.781 1.1 236 9.5 103660 51
2012-03-27 11:20 51°14.304 2°39.674 1.3 234 9.6 103660 51
2012-03-27 11:21 51°14.108 2°39.58 0.6 32 9.7 103660 49
2012-03-27 11:22 51°13.912 2°39.49 1.2 36 9.7 103660 50
2012-03-27 11:23 51°13.726 2°39.355 -999 321 9.8 103660 50
2012-03-27 11:24 51°13.542 2°39.212 -999 35 9.9 103660 50
2012-03-27 11:25 51°13.355 2°39.082 0.2 39 10.1 103660 50
2012-03-27 11:26 51°13.176 2°38.922 0.2 330 10.3 103660 50
2012-03-27 11:27 51°13.016 2°38.713 -999 355 10.4 103650 48
2012-03-27 11:28 51°12.853 2°38.51 -999 349 10.1 103650 47
2012-03-27 11:29 51°12.681 2°38.325 0.1 345 9.9 103660 50
2012-03-27 11:30 51°12.518 2°38.12 -999 358 9.8 103660 49
2012-03-27 11:31 51°12.344 2°37.937 0.1 345 9.7 103650 50
2012-03-27 11:32 51°12.179 2°37.74 -999 352 9.8 103650 49
2012-03-27 11:33 51°12.008 2°37.554 -999 351 9.7 103650 49
2012-03-27 11:34 51°11.831 2°37.374 0.3 335 9.8 103650 50
2012-03-27 11:35 51°11.657 2°37.187 0.1 335 10.2 103650 51
2012-03-27 11:36 51°11.495 2°36.975 1 356 10.4 103650 49
2012-03-27 11:37 51°11.345 2°36.746 0.6 9 10 103650 48
2012-03-27 11:38 51°11.193 2°36.519 0.6 -999 9.6 103650 49
2012-03-27 11:39 51°11.036 2°36.301 0.3 351 9.3 103650 50
2012-03-27 11:40 51°10.849 2°36.159 1 234 9.2 103650 51
2012-03-27 11:41 51°10.654 2°36.057 1.7 235 9.4 103650 52
2012-03-27 11:42 51°10.459 2°35.948 1.1 31 9.5 103650 51
2012-03-27 11:43 51°10.261 2°35.879 2.8 240 9.6 103650 50
2012-03-27 11:44 51°10.071 2°35.945 5.6 237 9.6 103630 48
2012-03-27 11:45 51°9.926 2°36.116 7.1 238 9.6 103630 48
2012-03-27 11:46 51°9.798 2°36.314 6.5 27 9.4 103630 49
2012-03-27 11:47 51°9.662 2°36.504 7.1 19 9.3 103630 50
2012-03-27 11:48 51°9.543 2°36.714 8 26 9.2 103630 50
2012-03-27 11:49 51°9.426 2°36.927 7.1 21 9.1 103620 50
2012-03-27 11:50 51°9.299 2°37.115 7.2 27 9.1 103630 50
2012-03-27 11:51 51°9.232 2°37.233 5.8 27 9 103630 51
2012-03-27 11:52 51°9.212 2°37.265 6.2 254 9.1 103630 51
2012-03-27 11:53 51°9.2 2°37.253 4.8 263 9.1 103630 51
2012-03-27 11:54 51°9.186 2°37.239 4.1 264 9.1 103630 50
2012-03-27 11:55 51°9.173 2°37.225 5.3 264 9 103630 50
2012-03-27 11:56 51°9.159 2°37.21 5.3 263 8.9 103630 51
2012-03-27 11:57 51°9.147 2°37.194 6.3 256 9 103630 52
2012-03-27 11:58 51°9.134 2°37.178 6.3 260 9 103620 52
2012-03-27 11:59 51°9.121 2°37.162 6.3 257 9.1 103620 51
2012-03-27 12:00 51°9.109 2°37.146 6.9 257 9.2 103630 51
2012-03-27 12:01 51°9.096 2°37.13 6 256 9.3 103620 51
2012-03-27 12:02 51°9.083 2°37.114 6.5 260 9.4 103630 50
2012-03-27 12:03 51°9.071 2°37.097 6 261 9.4 103630 50
2012-03-27 12:04 51°9.058 2°37.08 6.6 263 9.3 103630 51
2012-03-27 12:05 51°9.046 2°37.063 7 261 9.3 103620 51
2012-03-27 12:06 51°9.03 2°37.051 4.4 270 9.3 103630 50
2012-03-27 12:07 51°8.973 2°37.034 3.2 24 9.1 103630 50
2012-03-27 12:08 51°8.961 2°36.91 5.6 3 9 103630 51
2012-03-27 12:09 51°9.036 2°36.827 7.8 345 8.8 103620 52
2012-03-27 12:10 51°9.137 2°36.809 8.2 331 8.6 103610 53
2012-03-27 12:11 51°9.187 2°36.893 7 21 8.6 103610 53
2012-03-27 12:12 51°9.181 2°37.002 7.2 20 8.6 103610 52
2012-03-27 12:13 51°9.191 2°37.109 8 20 8.6 103610 52
2012-03-27 12:14 51°9.194 2°37.197 5.9 21 8.6 103610 53
2012-03-27 12:15 51°9.181 2°37.204 4.2 263 8.6 103620 53
2012-03-27 12:16 51°9.165 2°37.192 4.3 20 8.7 103620 53
2012-03-27 12:17 51°9.147 2°37.176 5.1 26 8.6 103620 53
2012-03-27 12:18 51°9.128 2°37.161 5.2 25 8.6 103620 53
2012-03-27 12:19 51°9.11 2°37.145 4.9 24 8.6 103620 52
2012-03-27 12:20 51°9.093 2°37.132 4.6 269 8.6 103620 54
2012-03-27 12:21 51°9.077 2°37.123 3.9 267 8.6 103620 53
2012-03-27 12:22 51°9.064 2°37.114 6 261 8.6 103620 53
2012-03-27 12:23 51°9.053 2°37.109 4.8 257 8.6 103620 54
2012-03-27 12:24 51°9.043 2°37.104 6.1 252 8.8 103610 53
2012-03-27 12:25 51°9.033 2°37.098 5.2 254 8.9 103610 53
2012-03-27 12:26 51°9.023 2°37.092 5.7 253 9 103610 53
2012-03-27 12:27 51°9.027 2°37.142 6.2 326 9 103610 52
2012-03-27 12:28 51°9.076 2°37.143 5.7 -999 9 103600 52
2012-03-27 12:29 51°9.085 2°37.052 4.2 34 8.7 103610 52
2012-03-27 12:30 51°9.059 2°36.95 1.4 33 8.6 103620 53
2012-03-27 12:31 51°9.045 2°36.844 5.2 25 8.5 103610 54
2012-03-27 12:32 51°9.04 2°36.748 4.8 25 8.5 103620 54
2012-03-27 12:33 51°9.033 2°36.659 5.4 27 8.5 103620 53
2012-03-27 12:34 51°9.024 2°36.575 4.8 27 8.4 103620 54
2012-03-27 12:35 51°9.014 2°36.493 4.9 28 8.4 103610 54
2012-03-27 12:36 51°9 2°36.408 5.2 33 8.4 103610 54
2012-03-27 12:37 51°8.978 2°36.323 4.4 33 8.4 103610 54
2012-03-27 12:38 51°8.957 2°36.236 4.3 34 8.3 103610 54
2012-03-27 12:39 51°8.937 2°36.148 5.4 35 8.3 103610 53
2012-03-27 12:40 51°8.918 2°36.06 5.6 32 8.3 103600 53
2012-03-27 12:41 51°8.903 2°35.971 5.3 32 8.3 103600 53
2012-03-27 12:42 51°8.891 2°35.883 4.9 32 8.3 103600 54
2012-03-27 12:43 51°8.882 2°35.793 5.3 27 8.3 103600 54
2012-03-27 12:44 51°8.884 2°35.708 6.6 21 8.3 103600 53
2012-03-27 12:45 51°8.894 2°35.627 5.8 21 8.3 103600 54
2012-03-27 12:46 51°8.909 2°35.551 6.1 16 8.3 103600 53
2012-03-27 12:47 51°8.932 2°35.482 8.2 9 8.3 103600 54
2012-03-27 12:48 51°8.953 2°35.432 7.2 10 8.3 103590 54
2012-03-27 12:49 51°8.963 2°35.393 6 16 8.2 103600 54
2012-03-27 12:50 51°8.966 2°35.36 5.7 16 8.2 103590 53
2012-03-27 12:51 51°8.996 2°35.306 8.6 354 8.2 103580 54
2012-03-27 12:52 51°9.092 2°35.326 10.2 326 8.2 103560 54
2012-03-27 12:53 51°9.165 2°35.511 10.9 322 8.3 103570 53
2012-03-27 12:54 51°9.239 2°35.78 9.8 319 8.5 103570 53
2012-03-27 12:55 51°9.303 2°36.076 10.7 320 8.6 103550 54
2012-03-27 12:56 51°9.386 2°36.362 13.6 321 8.6 103560 53
2012-03-27 12:57 51°9.47 2°36.65 12.2 322 8.7 103560 53
2012-03-27 12:58 51°9.55 2°36.941 13.7 321 8.7 103550 53
2012-03-27 12:59 51°9.616 2°37.244 11.1 320 8.7 103560 53
2012-03-27 13:00 51°9.683 2°37.55 9.9 320 8.7 103550 52
2012-03-27 13:01 51°9.763 2°37.846 12.3 322 8.7 103550 53
2012-03-27 13:02 51°9.843 2°38.142 12.1 318 8.7 103550 53
2012-03-27 13:03 51°9.906 2°38.445 10.9 320 8.7 103550 53
2012-03-27 13:04 51°9.987 2°38.741 10.2 321 8.7 103550 53
2012-03-27 13:05 51°10.048 2°39.048 11.8 320 8.7 103550 53
2012-03-27 13:06 51°10.126 2°39.344 12.1 318 8.7 103550 54
2012-03-27 13:07 51°10.197 2°39.646 12.4 321 8.7 103550 53
2012-03-27 13:08 51°10.274 2°39.943 10.3 318 8.7 103550 54
2012-03-27 13:09 51°10.333 2°40.251 11.9 318 8.7 103550 54
2012-03-27 13:10 51°10.413 2°40.548 11.9 321 8.7 103550 54
2012-03-27 13:11 51°10.487 2°40.846 9.9 319 8.7 103550 54
2012-03-27 13:12 51°10.551 2°41.15 11.3 322 8.7 103540 54
2012-03-27 13:13 51°10.631 2°41.446 10.3 321 8.8 103540 53
2012-03-27 13:14 51°10.689 2°41.754 11.5 317 8.8 103540 53
2012-03-27 13:15 51°10.746 2°42.063 10 319 8.8 103540 54
2012-03-27 13:16 51°10.823 2°42.362 9.6 321 8.7 103540 54
2012-03-27 13:17 51°10.904 2°42.656 10.1 320 8.8 103550 54
2012-03-27 13:18 51°10.951 2°42.974 10 318 8.7 103540 53
2012-03-27 13:19 51°11.008 2°43.286 9.7 318 8.7 103540 54
2012-03-27 13:20 51°11.086 2°43.586 13 319 8.7 103530 54
2012-03-27 13:21 51°11.161 2°43.89 13 319 8.7 103540 53
2012-03-27 13:22 51°11.223 2°44.202 10 320 8.7 103530 54
2012-03-27 13:23 51°11.303 2°44.505 13.8 320 8.7 103530 53
2012-03-27 13:24 51°11.39 2°44.801 10 319 8.7 103530 54
2012-03-27 13:25 51°11.467 2°45.106 9.5 318 8.8 103530 54
2012-03-27 13:26 51°11.532 2°45.422 11.8 319 8.7 103530 54
2012-03-27 13:27 51°11.612 2°45.729 12.5 320 8.7 103540 54
2012-03-27 13:28 51°11.685 2°46.041 10.7 319 8.7 103540 54
2012-03-27 13:29 51°11.769 2°46.346 12.9 321 8.7 103530 54
2012-03-27 13:30 51°11.859 2°46.645 9.6 320 8.7 103530 53
2012-03-27 13:31 51°11.936 2°46.955 12.8 318 8.8 103530 53
2012-03-27 13:32 51°12.005 2°47.271 10.9 320 8.7 103530 54
2012-03-27 13:33 51°12.082 2°47.583 13.1 322 8.7 103540 54
2012-03-27 13:34 51°12.182 2°47.878 13.2 321 8.8 103540 54
2012-03-27 13:35 51°12.265 2°48.188 8.8 320 8.8 103540 54
2012-03-27 13:36 51°12.367 2°48.482 9.7 321 8.8 103540 54
2012-03-27 13:37 51°12.477 2°48.77 11.5 323 8.8 103540 53
2012-03-27 13:38 51°12.576 2°49.07 11.3 322 8.8 103530 53
2012-03-27 13:39 51°12.68 2°49.366 12.6 321 8.8 103530 54
2012-03-27 13:40 51°12.771 2°49.675 13 322 8.7 103530 53
2012-03-27 13:41 51°12.872 2°49.977 10.1 323 8.8 103530 54
2012-03-27 13:42 51°12.981 2°50.273 9.8 322 8.8 103530 53
2012-03-27 13:43 51°13.077 2°50.581 12.3 320 8.7 103530 54
2012-03-27 13:44 51°13.186 2°50.877 13.7 324 8.8 103530 53
2012-03-27 13:45 51°13.306 2°51.165 11.4 323 8.8 103530 53
2012-03-27 13:46 51°13.409 2°51.467 12.7 323 8.8 103530 54
2012-03-27 13:47 51°13.513 2°51.771 9.8 324 8.7 103530 54
2012-03-27 13:48 51°13.636 2°52.059 11.4 325 8.7 103540 54
2012-03-27 13:49 51°13.746 2°52.36 9.5 322 8.7 103520 53
2012-03-27 13:50 51°13.857 2°52.661 10.1 325 8.7 103530 54
2012-03-27 13:51 51°13.984 2°52.946 11.9 325 8.7 103530 54
2012-03-27 13:52 51°14.101 2°53.239 10.1 324 8.7 103540 53
2012-03-27 13:53 51°14.216 2°53.536 13.2 324 8.7 103530 53
2012-03-27 13:54 51°14.339 2°53.825 14 325 8.7 103540 54
2012-03-27 13:55 51°14.462 2°54.116 11.8 324 8.7 103530 54
2012-03-27 13:56 51°14.571 2°54.422 13.6 319 8.7 103530 53
2012-03-27 13:57 51°14.625 2°54.758 10.7 38 8.7 103520 54
2012-03-27 13:58 51°14.528 2°55.039 7.8 242 8.6 103530 53
2012-03-27 13:59 51°14.364 2°55.204 5.8 238 8.6 103540 53
2012-03-27 14:00 51°14.196 2°55.351 5.3 31 8.6 103550 54
2012-03-27 14:01 51°14.058 2°55.457 2.6 244 8.7 103550 54
2012-03-27 14:02 51°13.948 2°55.536 1.6 21 8.8 103550 55
2012-03-27 14:03 51°13.855 2°55.603 3.3 248 9 103550 54
2012-03-27 14:04 51°13.774 2°55.677 3.2 247 9.1 103550 53
2012-03-27 14:05 51°13.715 2°55.779 3.9 240 9.2 103550 52
2012-03-27 14:06 51°13.667 2°55.885 3.9 245 9.4 103550 52
2012-03-27 14:07 51°13.642 2°55.974 3.4 248 9.5 103550 51
2012-03-27 14:08 51°13.636 2°56.015 4.2 244 9.7 103550 50